Location: Unspecified
(0.0000°N, 0.0000°E)
Time: 12:12:01
(UTC+00:00)

STARLINK 1024 - Pass Details

Date: 11 December 2019
Orbit: 344 x 355 km, 53.0° (Epoch: 10 December)

Event Time Altitude Azimuth Distance (km) Brightness Sun altitude
Rises 19:51:41 0° 212° (SSW) 2,132 7.5 -27.0°
Reaches altitude 10° 19:53:41 10° 210° (SSW) 1,291 6.2 -27.5°
Enters shadow 19:53:44 10° 210° (SSW) 1,270 6.2 -27.5°
